This demonstration page uses our WeatherBlox Daily Observations layout. Learn more.

Left ArrowRight Arrow

34.02893, -84.19858

Hourly Observations for April 9, 2019

Temp ( °F °C ) Dew Point ( °F °C ) Humidity (%) Winds ( mph kmh ) Pressure ( in mb ) Visibility ( mi km ) Precip ( " mm )
12:53 am 00:53 Clear with Mist and Fog 63 17.2 63 17.2 100 100 S 3 6 29.83 1010 6 10 0.00 0.00
1:53 am 01:53 Clear 64 17.8 63 17.2 96 96 S 8 13 29.81 1010 10 16 0.00 0.00
2:33 am 02:33 Mostly Cloudy 65 18.3 64 17.8 97 97 SSW 6 9 29.82 1010 10 16 0.00 0.00
2:53 am 02:53 Mostly Cloudy 64 17.8 63 17.2 96 96 S 3 6 29.80 1009 10 16 0.00 0.00
3:53 am 03:53 Mostly Cloudy 64 17.8 63 17.2 96 96 SW 5 7 29.78 1008 10 16 0.00 0.00
4:53 am 04:53 Cloudy 64 17.8 64 17.8 100 100 S 5 7 29.78 1009 10 16 0.00 0.00
5:53 am 05:53 Mostly Cloudy 64 17.8 62 16.7 93 93 SW 5 7 29.78 1008 10 16 0.00 0.00
6:50 am 06:50 Partly Cloudy 63 17 61 16 94 94 S 6 9 29.80 1009 10 16 0.00 0.00
6:53 am 06:53 Mostly Clear 63 17.2 61 16.1 93 93 S 6 9 29.79 1009 10 16 0.00 0.00
7:45 am 07:45 Cloudy with Light Rain 63 17.2 62 16.7 97 97 Calm 29.81 1010 8 13 0.01 0.25
7:53 am 07:53 Cloudy 63 17.2 62 16.7 97 97 Calm 29.81 1009 10 16 0.01 0.25
8:53 am 08:53 Cloudy 64 17.8 63 17.2 96 96 Calm 29.81 1010 10 16 0.00 0.00
9:34 am 09:34 Mostly Sunny 66 18.9 63 17.2 90 90 Calm 29.80 1009 10 16 0.00 0.00
9:53 am 09:53 Mostly Sunny 67 19.4 62 16.7 84 84 Calm 29.79 1009 10 16 0.00 0.00
10:53 am 10:53 Mostly Cloudy 70 21.1 61 16.1 73 73 VRB 3 6 29.78 1008 10 16 0.00 0.00
11:45 am 11:45 Cloudy 69 20.6 62 16.7 78 78 VRB 7 11 29.79 1009 10 16 0.00 0.00
11:53 am 11:53 Cloudy 69 20.6 62 16.7 78 78 S 7 11 29.79 1009 10 16 0.00 0.00
12:33 pm 12:33 Partly Cloudy 71 21.7 62 16.7 73 73 SSE 7 11 29.77 1008 10 16 0.00 0.00
12:53 pm 12:53 Mostly Cloudy 71 21.7 62 16.7 73 73 SSE 8 13 29.76 1008 10 16 0.00 0.00
1:39 pm 13:39 Partly Cloudy 72 22.2 61 16.1 68 68 VRB 6 9 29.75 1007 10 16 0.00 0.00
1:53 pm 13:53 Mostly Sunny 73 22.8 61 16.1 66 66 VRB 6 9 29.74 1007 10 16 0.00 0.00
2:53 pm 14:53 Mostly Sunny 73 22.8 59 15 62 62 SE 6 9 29.70 1006 10 16 0.00 0.00
3:53 pm 15:53 Cloudy 71 21.7 60 15.6 68 68 SSE 6 9 29.68 1005 10 16 0.00 0.00
4:53 pm 16:53 Partly Cloudy 73 22.8 60 15.6 64 64 VRB 3 6 29.69 1005 10 16 0.00 0.00
5:31 pm 17:31 Cloudy with Thunderstorms 71 21.7 62 16.7 73 73 Calm 29.70 1006 8 13 0.01 0.25
5:53 pm 17:53 Cloudy with Thunderstorms 67 19.4 63 17.2 87 87 WSW 10 17 29.71 1006 9 14 0.01 0.25
6:37 pm 18:37 Cloudy with Strong Thunderstorms 62 16.7 59 15 90 90 N 10 17 29.75 1007 2 2 0.41 10.41
6:40 pm 18:40 Cloudy with Strong Thunderstorms 62 16.7 60 15.6 93 93 N 10 17 29.76 1008 1 1 0.67 17.02
6:53 pm 18:53 Cloudy with Strong Thunderstorms 63 17.2 59 15 87 87 S 12 19 29.74 1007 1 1 1.11 28.19
6:58 pm 18:58 Cloudy with Mist and Fog 62 16.7 58 14.4 86 86 SW 8 13 29.75 1007 6 10 0.00 0.03
7:07 pm 19:07 Cloudy with Light Rain 63 17.2 59 15 87 87 NW 5 7 29.74 1007 7 11 0.01 0.25
7:53 pm 19:53 Sunny 62 16.7 61 16.1 96 96 NNE 6 9 29.72 1007 10 16 0.01 0.25
8:53 pm 20:53 Clear 62 16.7 60 15.6 93 93 Calm 29.73 1007 10 16 0.00 0.00
9:53 pm 21:53 Clear 61 16.1 60 15.6 97 97 Calm 29.75 1008 7 11 0.00 0.00
10:46 pm 22:46 Clear with Mist and Fog 60 15.6 59 15 96 96 Calm 29.78 1008 2 3 0.00 0.00
10:50 pm 22:50 Clear with Fog 59 15 59 15 100 100 Calm 29.78 1009 1 1 0.00 0.00
10:53 pm 22:53 Clear with Fog 59 15 59 15 100 100 Calm 29.76 1008 1 1 0.00 0.00
10:59 pm 22:59 Clear with Mist and Fog 59 15 59 15 100 100 Calm 29.78 1009 1 2 0.00 0.00
11:15 pm 23:15 Mostly Cloudy with Mist and Fog 60 15.6 60 15.6 100 100 Calm 29.77 1008 1 2 0.00 0.00
11:25 pm 23:25 Clear with Mist and Fog 60 15.6 60 15.6 100 100 Calm 29.77 1008 1 2 0.00 0.00
11:30 pm 23:30 Clear with Mist and Fog 59 15 59 15 100 100 Calm 29.77 1008 4 6 0.00 0.00
11:37 pm 23:37 Clear with Mist and Fog 59 15 59 15 100 100 Calm 29.77 1008 2 3 0.00 0.00
11:53 pm 23:53 Clear with Mist and Fog 59 15 59 15 100 100 Calm 29.76 1008 4 6 0.00 0.00

Powered by AerisWeather